Погода в Оклане

Россия / Камчатский край     62°42′45″N   166°34′45″E
темп.,
°C
ветер,
м/с
пор.,
м/с
влажн.,
%
обл.,
%
осадки,
мм/ч
давл.,
гПа
погр.,
м
29 ноября, пн
пн2900:00−23ссв1197100 0.0 101617
03:00−25с119695 0.0 101613
06:00−24св119790 0.0 101615
09:00−26с119941 0.0 101613
12:00−26ссв119862 0.0 101613
15:00−26с1197100 0.0 101613
18:00−24ссв1195100 0.0 101517
21:00−24с2296100 0.0 101520
30 ноября, вт
вт3000:00−22ссв2296100 0.0 101430
03:00−18св2391100 0.0 101276
06:00−16св2493100 0.4 1010123
09:00−14св3596100 0.9 1008167
12:00−13ссв3596100 3.0 1006159
15:00−12с3596100 3.9 1004171
18:00−13с3596100 8.0 1003230
21:00−13всв0197100 2.6 100330
1 декабря, ср
ср100:00−19вюв11100100 2.9 100612
03:00−23всв22100100 0.1 100711
06:00−23ссв1299100 0.1 100928
09:00−23всв11100100 0.1 101024
12:00−22всв1199100 0.3 101070
15:00−21в1199100 0.3 101182
18:00−23ссз00100100 0.4 101311
21:00−23з1199100 0.1 10169
2 декабря, чт
чт200:00−24зюз119981 0.1 10199
03:00−28з1110072 0.0 10219
06:00−29з1110080 0.1 10249
09:00−30зсз11100100 0.0 10269
12:00−28с2299100 0.1 102529
15:00−25ссв3499100 0.1 1023128
18:00−22св51393100 0.1 1017379
21:00−20ссв91598100 2.8 1010539
3 декабря, пт
пт300:00−20ссв91598100 10.7 1004512
03:00−19ссв91598100 4.1 997509
06:00−18ссв81497100 8.3 990462
09:00−15ссв61296100 4.1 983439
12:00−13ссв71395100 9.5 977456
15:00−13сз2396100 2.8 976192
18:00−12юз3593100 4.2 979219
21:00−14юз3490100 0.0 98385